FW3072 Weather Reports


Display with metric or nautical units.
time (UTC)temp
F
wind
direction
speed
MPH
gust
MPH
rain 1hr
in
rain 24hr
in
rain mn
in
humidity
%
barometer
mb
20260508104202 41 257 0.0 0.0 0.02 0.13 0.02 92 1011.5
20260508103202 42 257 0.0 0.0 0.01 0.12 0.01 92 1011.5
20260508102225 42 257 0.0 1.0 0.01 0.12 0.01 92 1011.5
20260508101202 42 256 0.0 2.0 0.01 0.12 0.01 92 1011.4
20260508100203 42 246 0.0 0.0 0.01 0.12 0.01 92 1011.3
20260508095202 42 246 0.0 0.0 0.00 0.11 0.00 92 1011.3
20260508094203 42 246 0.0 0.0 0.00 0.11 0.00 92 1011.3
20260508093202 42 246 0.0 0.0 0.00 0.11 0.00 92 1011.0
20260508092202 42 246 0.0 0.0 0.00 0.11 0.00 92 1011.3
20260508091204 42 246 0.0 1.0 0.00 0.11 0.00 92 1011.4
20260508090224 42 246 0.0 0.0 0.00 0.11 0.00 92 1011.3
20260508085245 42 246 0.0 1.0 0.00 0.11 0.00 92 1011.3
20260508084224 42 243 0.0 2.0 0.00 0.11 0.00 92 1011.5
20260508083203 42 244 0.0 0.0 0.00 0.11 0.00 92 1011.6
20260508082244 42 243 0.0 2.0 0.00 0.11 0.00 92 1011.6
20260508081203 41 261 1.0 3.0 0.00 0.11 0.00 92 1011.5
20260508080202 41 319 0.0 0.0 0.00 0.11 0.00 92 1011.6
20260508075203 41 319 0.0 0.0 0.00 0.11 0.00 92 1011.6
20260508074204 41 319 0.0 0.0 0.00 0.11 0.00 92 1011.5
20260508073224 40 319 0.0 0.0 0.00 0.11 0.00 92 1011.5
20260508072224 40 319 0.0 0.0 0.00 0.11 0.00 92 1011.6
20260508071203 40 319 0.0 0.0 0.00 0.11 0.00 91 1011.6
20260508070203 40 319 0.0 0.0 0.00 0.11 0.00 91 1011.6
20260508065224 40 319 0.0 0.0 0.00 0.11 0.00 91 1011.6
20260508064204 39 319 0.0 0.0 0.00 0.11 0.00 91 1011.8
20260508063203 39 319 0.0 0.0 0.00 0.11 0.00 91 1011.6
20260508062202 39 319 0.0 0.0 0.00 0.11 0.00 91 1011.7
20260508061203 39 319 0.0 0.0 0.00 0.11 0.00 91 1011.8
20260508060227 39 319 0.0 0.0 0.00 0.11 0.00 91 1011.8
20260508055223 39 319 0.0 0.0 0.00 0.11 0.00 90 1011.9
20260508054203 39 319 0.0 0.0 0.00 0.11 0.00 91 1011.9
20260508053202 38 319 0.0 0.0 0.00 0.11 0.00 90 1012.0
20260508052226 38 319 0.0 0.0 0.00 0.11 0.00 90 1011.8
20260508051202 38 319 0.0 0.0 0.00 0.11 0.00 90 1012.0
20260508050224 38 319 0.0 0.0 0.00 0.11 0.00 90 1012.0
20260508045202 39 319 0.0 0.0 0.00 0.11 0.00 90 1012.2
20260508044224 39 319 0.0 0.0 0.00 0.11 0.00 90 1012.3
20260508043202 39 319 0.0 0.0 0.00 0.11 0.00 90 1012.2
20260508042203 39 319 0.0 0.0 0.00 0.11 0.00 89 1012.2
20260508041202 39 319 0.0 0.0 0.00 0.11 0.00 89 1012.2
20260508040203 40 319 0.0 0.0 0.00 0.11 0.00 89 1012.2
20260508035202 40 319 0.0 0.0 0.00 0.11 0.11 89 1012.1
20260508034203 40 319 0.0 0.0 0.00 0.11 0.11 89 1012.2
20260508033203 40 319 0.0 0.0 0.00 0.11 0.11 89 1012.2
20260508032205 41 319 0.0 0.0 0.00 0.11 0.11 89 1012.2
20260508031225 41 319 0.0 0.0 0.00 0.11 0.11 89 1012.1
20260508030226 41 319 0.0 0.0 0.00 0.11 0.11 88 1012.1
20260508025202 42 319 0.0 0.0 0.01 0.10 0.10 88 1012.0
20260508024203 42 319 0.0 0.0 0.01 0.10 0.10 88 1011.9
20260508023225 43 319 0.0 0.0 0.01 0.10 0.10 88 1011.9
20260508022202 43 319 0.0 0.0 0.01 0.10 0.10 88 1011.8
20260508021203 43 317 0.0 3.0 0.01 0.10 0.10 88 1011.8
20260508020202 43 331 1.0 5.0 0.01 0.10 0.10 88 1012.0
20260508015206 43 294 0.0 9.0 0.08 0.08 0.08 87 1012.0
20260508014203 43 278 2.0 9.0 0.07 0.07 0.07 87 1012.1
20260508013202 44 291 0.0 7.0 0.07 0.07 0.07 86 1011.9
20260508012203 44 277 4.0 10.0 0.05 0.05 0.05 85 1012.0
20260508011203 44 264 1.0 8.0 0.03 0.03 0.03 85 1011.9
20260508010203 44 280 3.0 8.0 0.00 0.00 0.00 84 1011.6
20260508005204 44 325 0.0 0.0 0.00 0.00 0.00 83 1011.3
20260508004203 44 326 0.0 0.0 0.00 0.00 0.00 82 1011.1
20260508003203 44 326 0.0 3.0 0.00 0.00 0.00 82 1011.0
20260508002202 44 336 1.0 6.0 0.00 0.00 0.00 81 1010.9
20260508001203 45 323 0.0 12.0 0.00 0.00 0.00 79 1011.0
20260508000204 46 286 8.0 15.0 0.00 0.00 0.00 76 1011.2
20260507235203 47 298 6.0 14.0 0.00 0.00 0.00 72 1011.1
20260507234205 48 295 10.0 16.0 0.00 0.00 0.00 69 1011.1
20260507233202 49 310 7.0 13.0 0.00 0.00 0.00 66 1010.7
20260507232203 50 307 1.0 8.0 0.00 0.00 0.00 65 1010.5
20260507231202 50 313 0.0 5.0 0.00 0.00 0.00 65 1010.4
20260507230203 50 284 4.0 7.0 0.00 0.00 0.00 64 1010.3
20260507225202 50 301 1.0 5.0 0.00 0.00 0.00 64 1010.3
20260507224203 51 301 3.0 6.0 0.00 0.00 0.00 62 1010.3
20260507223203 51 305 3.0 6.0 0.00 0.00 0.00 62 1010.3
20260507222202 51 325 1.0 7.0 0.00 0.00 0.00 62 1010.3
20260507221203 51 291 3.0 9.0 0.00 0.00 0.00 63 1010.3
20260507220202 51 273 3.0 9.0 0.00 0.00 0.00 63 1010.4
20260507215203 51 274 1.0 7.0 0.00 0.00 0.00 64 1010.4
20260507214202 52 286 2.0 7.0 0.00 0.00 0.00 63 1010.4
20260507213224 51 279 1.0 8.0 0.00 0.00 0.00 65 1010.3
20260507212202 51 297 2.0 4.0 0.00 0.00 0.00 64 1010.4
20260507211203 51 327 0.0 3.0 0.00 0.00 0.00 63 1010.3
20260507210202 50 255 0.0 4.0 0.00 0.00 0.00 64 1010.4
20260507205203 50 308 2.0 7.0 0.00 0.00 0.00 63 1010.5
20260507204202 50 293 4.0 8.0 0.00 0.00 0.00 64 1010.6
20260507203204 50 303 3.0 7.0 0.00 0.00 0.00 65 1010.6
20260507202202 50 338 3.0 9.0 0.00 0.00 0.00 65 1010.6
20260507201203 51 319 5.0 13.0 0.00 0.00 0.00 61 1010.7
20260507200202 52 306 5.0 13.0 0.00 0.00 0.00 61 1010.7
20260507195203 53 327 3.0 10.0 0.00 0.00 0.00 60 1010.8
20260507194202 54 304 3.0 10.0 0.00 0.00 0.00 59 1010.9
20260507193203 54 15 2.0 12.0 0.00 0.00 0.00 63 1010.9
20260507192202 52 293 2.0 11.0 0.00 0.00 0.00 63 1010.9
20260507191203 51 279 4.0 11.0 0.00 0.00 0.00 66 1011.1
20260507190224 50 293 6.0 11.0 0.00 0.00 0.00 64 1011.2
20260507185246 49 349 6.0 14.0 0.00 0.00 0.00 65 1011.3
20260507184202 49 329 7.0 12.0 0.00 0.00 0.00 63 1011.3
20260507183224 49 306 7.0 14.0 0.00 0.00 0.00 64 1011.2
20260507182202 49 315 4.0 11.0 0.00 0.00 0.00 65 1011.4
20260507181203 49 305 5.0 10.0 0.00 0.00 0.00 66 1011.4
20260507180203 50 313 1.0 11.0 0.00 0.00 0.00 65 1011.2
20260507175203 50 302 1.0 3.0 0.00 0.00 0.00 64 1011.2
20260507174203 51 300 2.0 8.0 0.00 0.00 0.00 63 1011.2
20260507173203 51 334 3.0 9.0 0.00 0.00 0.00 62 1011.2
20260507172202 52 298 2.0 8.0 0.00 0.00 0.00 60 1011.2
20260507171203 52 307 3.0 9.0 0.00 0.00 0.00 59 1011.3
20260507170223 53 11 3.0 8.0 0.00 0.00 0.00 59 1011.3
20260507165203 54 337 3.0 10.0 0.00 0.00 0.00 57 1011.4
20260507164223 54 292 3.0 11.0 0.00 0.00 0.00 58 1011.5
20260507163225 54 282 1.0 9.0 0.00 0.00 0.00 59 1011.6
20260507162203 54 326 3.0 9.0 0.00 0.00 0.00 61 1011.7
20260507161203 53 309 2.0 9.0 0.00 0.00 0.00 59 1011.8
20260507160202 54 273 2.0 7.0 0.00 0.00 0.00 61 1011.9
20260507155203 53 251 2.0 7.0 0.00 0.00 0.00 63 1012.1
20260507154202 52 348 3.0 9.0 0.00 0.00 0.00 63 1012.1
20260507153204 51 282 2.0 9.0 0.00 0.00 0.00 65 1012.1
20260507152202 51 283 4.0 12.0 0.00 0.00 0.00 65 1012.3
20260507151203 51 307 5.0 12.0 0.00 0.00 0.00 64 1012.3
20260507150202 50 335 2.0 11.0 0.00 0.00 0.00 67 1012.3
20260507145203 49 297 5.0 8.0 0.00 0.00 0.00 70 1012.4
20260507144202 48 280 4.0 12.0 0.00 0.00 0.00 73 1012.4
20260507143203 47 239 0.0 9.0 0.00 0.00 0.00 73 1012.4
20260507142202 46 309 2.0 8.0 0.00 0.00 0.00 77 1012.6
20260507141203 45 262 1.0 5.0 0.00 0.01 0.00 78 1012.5
20260507140224 44 141 2.0 5.0 0.00 0.01 0.00 81 1012.6
20260507135203 43 98 0.0 4.0 0.00 0.01 0.00 82 1012.7
20260507134203 43 109 2.0 4.0 0.00 0.02 0.00 85 1012.7
20260507133203 42 117 1.0 4.0 0.00 0.02 0.00 87 1012.9
20260507132203 41 121 0.0 2.0 0.00 0.02 0.00 88 1012.9
20260507131202 41 121 1.0 3.0 0.00 0.02 0.00 89 1012.9
20260507130203 41 111 2.0 4.0 0.00 0.02 0.00 91 1012.9
20260507125204 40 92 0.0 2.0 0.00 0.02 0.00 92 1013.0
20260507124203 40 92 0.0 0.0 0.00 0.02 0.00 92 1013.0
20260507123204 40 87 0.0 0.0 0.00 0.03 0.00 93 1013.1
20260507122202 39 71 0.0 0.0 0.00 0.04 0.00 93 1013.2
20260507121203 39 71 0.0 0.0 0.00 0.04 0.00 92 1013.1
20260507120204 40 61 0.0 0.0 0.00 0.04 0.00 93 1013.1
20260507115203 40 61 0.0 0.0 0.00 0.04 0.00 93 1013.2
20260507114203 41 29 0.0 0.0 0.00 0.05 0.00 93 1013.4
20260507113202 41 29 0.0 0.0 0.00 0.05 0.00 93 1013.4
20260507112203 41 29 0.0 0.0 0.00 0.06 0.00 93 1013.2
20260507111204 41 30 0.0 0.0 0.00 0.07 0.00 93 1013.1
20260507110203 40 30 0.0 0.0 0.00 0.07 0.00 93 1012.8